User: anonymous   Login
Location: Marengo
(51.4813°N, 109.7825°W)
Time: 10:57:48
(UTC+00:00)
Language:

BlueWalker 3 - Orbit

View from above orbital plane
View from above orbital plane
View from above satellite
View from above satellite

Ground track
Ground track

The orbit data is extracted from the following two-line orbital elements,

1 53807U 22111AL  24111.22372820  .00013753  00000-0  55367-3 0  9993
2 53807  53.2389 100.5489 0007352 290.0411  69.9797 15.25152239 89386
Epoch (UTC): 20 April 2024 05:22:10
Eccentricity: 0.0007352
inclination: 53.2389°
perigee height: 485 km
apogee height: 495 km
right ascension of ascending node: 100.5489°
argument of perigee: 290.0411°
revolutions per day: 15.25152239
mean anomaly at epoch: 69.9797°
orbit number at epoch: 8938

The dashed part of the orbit path shows where the satellite is in the earth's shadow,  

DLR